Location: Noyers
(47.2770°N, 1.4032°E)
Time: 03:10:38
(UTC+00:00)

Cosmos 2360 Rocket - Pass Details

Date: 15 May 2026
Orbit: 831 x 845 km, 71.0° (Epoch: 8 June)

Event Time Altitude Azimuth Distance (km) Brightness Sun altitude
Rises 21:44:58 0° 330° (NNW) 3,415 7.1 -17.9°
Reaches altitude 10° 21:47:27 10° 328° (NNW) 2,476 5.9 -18.1°
Maximum altitude 21:53:04 66° 248° (WSW) 921 2.4 -18.6°
Enters shadow 21:55:47 31° 175° (S) 1,443 2.9 -18.8°
